FORTE

Satellite information

Favourite Embed

Satellite Type and Status

PAYLOADIN ORBIT

Key statistics

Satellite FORTE at a glance.

Uptime

10237

Days in orbit

Revolutions

≈ 14.3

Per day

Orbit

LEO

Low Earth Orbit

Inclination

70.0

Latest

Satellite identification and parameters

Extended collection of information and parameters for FORTE.

Object identification

Identified? True

Debris? False

Object name: FORTE

International designator: 1997-047A

Object number (NORAD): 24920

Object ID (CCSDS): 24920

Country: UNITED STATES OF AMERICA (US)

Current information (Y/N): Y

RCS size: LARGE

Orbital parameters

Period: 100.858 minutes

Inclination: 69.9527 deg

SMA: 7177.385 km

Apoapsis: 817.05 km

Periapsis: 781.45 km

RAAN: 291.4986 deg

Eccentricy: 0.00248004

Argument of periapsis: 299.7539 deg

Mean anomaly: 60.1116 deg

Mean motion: 14.27754001 rev/day

Mean motion (dot): 0.00000216 rev/day2

B* drag term: 0.0001105831 1/REarth

Two-line elements (TLE)

Creation date: Sept. 8, 2025, 3:16 a.m.

Reference frame: TEME

Reference center: EARTH

Epoch: Sept. 7, 2025, 10:05 p.m. UTC

TLE line 0: 0 FORTE

TLE line 1: 1 24920U 97047A 25250.92014348 .00000216 00000-0 11058-3 0 9996

TLE line 2: 2 24920 69.9527 291.4986 0024800 299.7539 60.1116 14.27754001458399

Live tracking on map

Real-time ground track for satellite FORTE.

In-orbit conjunctions

There are no conjunctions computed for FORTE, at the moment. Check back to stay up to date, as we update our databases every day.

Go to all conjunctions

Associated space launch

FORTE was lifted into orbit during the mission ‘Pegasus XL | Fast On-orbit Rapid Recording of Transient Events (FORTE)’, on board a Pegasus XL space rocket.

The launch took place on Aug. 29, 1997, 3:02 p.m. from Space Launch Complex 10E.

For more information about the launch, click the button.

Launch to space Pegasus XL | Fast On-orbit Rapid Recording of Transient Events (FORTE)
Pegasus XL | Fast On-orbit Rapid Recording of Transient Events (FORTE)

Agency: N/A

Status: Launch Successful

Launch date: Aug. 29, 1997, 3:02 p.m. UTC

Rocket: Pegasus XL

Launch pad: Space Launch Complex 10E

Location: Vandenberg SFB, CA, USA

...

Latest news about this satellite

There are no fresh news available about this satellite. Check back as we update our databases every day.


Newsletter sign-up

Weekly statistics, charts and insights to help you stay on top of the space industry.